Location: Zagreb
(45.8000°N, 16.0000°E)
Time: 20:45:06
(UTC+01:00)

deb Explorer IX - Pass Details

Date: 02 October 2020
Orbit: 537 x 1106 km, 38.8° (Epoch: 30 October)

Event Time Altitude Azimuth Distance (km) Brightness Sun altitude
Rises 17:19:52 0° 235° (SW) 3,302 ? 11.8°
Reaches altitude 10° 17:22:48 10° 224° (SW) 2,266 ? 11.3°
Maximum altitude 17:27:13 28° 167° (SSE) 1,268 ? 10.5°
Drops below altitude 10° 17:31:08 10° 108° (ESE) 1,987 ? 9.9°
Sets 17:33:33 0° 96° (E) 2,824 ? 9.5°
